Fort Collins, CO

3:18 AM MDT on October 14, 2019 (GMT -0600)
Fort Collins-Loveland Municipal

Weather History for KFNL - September, 2019

Change the Weather History Date:

Saturday, September 21, 2019

  Actual Average Record
Temperature  
Mean Temperature 62 °F -  
Max Temperature 78 °F - 90 °F (2017)
Min Temperature 46 °F - 37 °F (1999)
Degree Days  
Heating Degree Days 3    
Month to date heating degree days 8  
Cooling Degree Days 0    
Month to date cooling degree days 118  
Growing Degree Days 12 (Base 50)    
Moisture  
Dew Point 35 °F    
Average Humidity 50    
Maximum Humidity 80    
Minimum Humidity 20    
Precipitation  
Precipitation 0.00 in - 1.05 in (2004)
Snow  
Snow 0.00 in - - ()
Snow Depth 0.00 in    
Sea Level Pressure  
Sea Level Pressure 29.86 in    
Wind  
Wind Speed 8 mph (ESE)    
Max Wind Speed 22 mph    
Max Gust Speed 41 mph    
Visibility 10 miles    
Events Rain    
T = Trace of Precipitation, MM = Missing Value Source: NWS Daily Summary

Daily Weather History Graph

Daily Weather History Graph

Search for Another Location

Airport or City:

Astronomy

Sep. 21, 2019 Rise Set
Actual Time 6:46 AM MDT 6:59 PM MDT
Civil Twilight 6:19 AM MDT 7:26 PM MDT
Nautical Twilight 5:47 AM MDT 7:58 PM MDT
Astronomical Twilight 5:14 AM MDT 8:30 PM MDT
Moon 11:37 PM MDT (9/21) 1:56 PM MDT (9/21)
Length of Visible Light 13h 07m
Length of Day
12h 12m
Waning Gibbous, 54% of the Moon is Illuminated
Sep 21
Waning Gibbous
Sep 21
Last Quarter
Sep 28
New
Oct 5
First Quarter
Oct 13
Full

Hourly Weather History & Observations

Time (MDT) Temp. Dew Point Humidity Pressure Visibility Wind Dir Wind Speed Gust Speed Precip Events Conditions
12:56 AM 59.0 °F 30.0 °F 33% 29.73 in 10.0 mi SE 6.9 mph - N/A   Clear
1:56 AM 55.0 °F 30.9 °F 40% 29.75 in 10.0 mi SSE 4.6 mph - N/A   Clear
2:56 AM 52.0 °F 35.1 °F 53% 29.76 in 10.0 mi SSE 9.2 mph - N/A   Clear
3:56 AM 52.0 °F 33.1 °F 49% 29.78 in 10.0 mi NE 5.8 mph - N/A   Clear
4:56 AM 51.1 °F 30.9 °F 46% 29.82 in 10.0 mi SSE 8.1 mph - N/A   Clear
5:56 AM 48.0 °F 30.9 °F 52% 29.85 in 10.0 mi SSE 6.9 mph - N/A   Clear
6:56 AM 46.9 °F 32.0 °F 56% 29.89 in 10.0 mi Calm Calm - N/A   Clear
7:56 AM 53.1 °F 33.1 °F 47% 29.90 in 10.0 mi SSW 5.8 mph - N/A   Clear
8:56 AM 59.0 °F 33.1 °F 38% 29.90 in 10.0 mi SSW 4.6 mph - N/A   Clear
9:56 AM 63.0 °F 35.1 °F 35% 29.90 in 10.0 mi South 10.4 mph - N/A   Clear
10:56 AM 68.0 °F 33.1 °F 27% 29.87 in 10.0 mi SSE 12.7 mph 19.6 mph N/A   Clear
11:56 AM 73.9 °F 32.0 °F 21% 29.84 in 10.0 mi SSE 13.8 mph 20.7 mph N/A   Clear
12:56 PM 75.9 °F 32.0 °F 20% 29.82 in 3.0 mi East 15.0 mph 20.7 mph N/A   Haze
1:56 PM 77.0 °F 34.0 °F 21% 29.81 in 10.0 mi ENE 18.4 mph 23.0 mph N/A   Clear
2:56 PM 75.0 °F 32.0 °F 21% 29.81 in 10.0 mi ENE 11.5 mph 23.0 mph N/A   Clear
3:56 PM 73.9 °F 30.0 °F 20% 29.81 in 10.0 mi ENE 11.5 mph - N/A   Partly Cloudy
4:56 PM 71.1 °F 33.1 °F 25% 29.83 in 10.0 mi SE 21.9 mph 34.5 mph N/A   Overcast
5:56 PM 69.1 °F 35.1 °F 29% 29.86 in 10.0 mi NE 9.2 mph 26.5 mph 0.00 in Rain Light Rain
6:56 PM 66.9 °F 36.0 °F 32% 29.88 in 10.0 mi NE 10.4 mph - 0.00 in   Overcast
7:56 PM 62.1 °F 39.9 °F 44% 29.93 in 10.0 mi NE 12.7 mph - N/A   Overcast
8:56 PM 55.9 °F 41.0 °F 57% 29.98 in 10.0 mi NE 15.0 mph - N/A   Overcast
9:56 PM 54.0 °F 45.0 °F 72% 30.01 in 10.0 mi East 11.5 mph - N/A   Mostly Cloudy
10:56 PM 53.1 °F 43.0 °F 69% 30.00 in 10.0 mi Calm Calm - N/A   Mostly Cloudy
11:56 PM 48.9 °F 42.1 °F 77% 29.98 in 10.0 mi South 3.5 mph - N/A   Clear